Home   Weather   Kristiansand   Past weeks

Flag for Norway Past Weather in Kristiansand, Norway — Yesterday and Last 2 Weeks

Now
46 °F

Passing clouds.


Feels Like: 41 °F
Forecast: 46 / 53 °F
Wind: 10 mph from South

Location: Kristiansand / Kjevik

Current Time: Dec 7, 2016 at 5:34:00 pm

Latest Report: Dec 7, 2016 at 4:50 pm


Visibility: N/A

Pressure: 29.86 "Hg

Humidity: 100%

Dew Point: 46 °F

Location of KristiansandLocation

Past Weather in Kristiansand — Graph

°F

Kristiansand Temperature Yesterday

Maximum temperature yesterday: 36 °F (at 12:50 pm)
Minimum temperature yesterday: 27 °F (at 5:50 am)
Average temperature yesterday: 30 °F

High & Low Weather Summary for the Past Weeks

 TemperatureHumidityPressure
High52 °F (Nov 26, 12:50 pm)100% (Nov 22, 5:20 pm)30.51 "Hg (Nov 22, 5:20 pm)
Low19 °F (Dec 3, 2:50 am)34% (Nov 27, 1:20 pm)29.65 "Hg (Dec 1, 1:50 pm)
Average39 °F77%30.11 "Hg
* Reported Nov 22 4:20 pm — Dec 7 4:20 pm, Kristiansand, Weather by CustomWeather, © 2016

Note: Actual official high and low records may vary slightly from our data, if they occured in-between our weather recording intervals... More about our weather records

Advertising

Kristiansand Weather History for the Previous 24 Hours

Scroll right to see more
 ConditionsComfort  
Time TempWeatherWind HumidityBarometerVisibility
4:20 pm
Wed, Dec 7
46 °FPassing clouds.12 mph93%29.86 "Hg4 mi
3:50 pm46 °FPassing clouds.10 mph100%29.86 "Hg6 mi
3:20 pm46 °FPartly sunny.12 mph100%29.89 "HgN/A
2:50 pm46 °FPartly sunny.13 mph100%29.89 "HgN/A
2:20 pm45 °FPartly sunny.10 mph100%29.89 "HgN/A
1:50 pm45 °FDrizzle. Partly sunny.10 mph100%29.92 "Hg5 mi
1:20 pm45 °FPartly sunny.13 mph100%29.95 "Hg4 mi
12:50 pm45 °FDrizzle. Partly sunny.12 mph100%29.95 "Hg4 mi
12:20 pm45 °FDrizzle. Fog.12 mph100%29.98 "Hg2 mi
11:50 am45 °FDrizzle. Fog.9 mph93%29.98 "Hg1 mi
11:20 am45 °FDrizzle. Fog.12 mph93%30.04 "Hg1 mi
10:50 am43 °FDrizzle. Fog.9 mph100%30.04 "Hg1 mi
10:20 am43 °FDrizzle. Dense fog.7 mph93%30.07 "Hg1 mi
9:50 am41 °FDrizzle. Dense fog.3 mph100%30.09 "Hg2 mi
9:20 am39 °FDrizzle. Partly sunny.1 mph100%30.09 "Hg2 mi
8:50 am34 °FPassing clouds.2 mph100%30.12 "Hg2 mi
8:20 am34 °FPassing clouds.2 mph100%30.12 "Hg3 mi
7:50 am34 °FLight rain. Passing clouds.5 mph100%30.15 "Hg3 mi
7:20 am34 °FLight rain. Passing clouds.5 mph100%30.15 "Hg4 mi
6:50 am34 °FLight rain. Passing clouds.3 mph93%30.18 "Hg3 mi
6:20 am34 °FLight rain. Passing clouds.5 mph93%30.21 "Hg3 mi
5:50 am32 °FPartly cloudy.6 mph100%30.21 "Hg2 mi
5:20 am32 °FIce fog.3 mph100%30.21 "Hg1 mi
4:50 am32 °FIce fog.5 mph100%30.24 "Hg1 mi
4:20 am32 °FLow clouds.3 mph100%30.27 "Hg2 mi
3:50 am32 °FLight fog.6 mph100%30.27 "Hg5 mi
3:20 am32 °FLow clouds.3 mph100%30.30 "Hg5 mi
2:50 am32 °FLow clouds.3 mph100%30.30 "Hg6 mi
2:20 am32 °FDrizzle. Low clouds.5 mph100%30.30 "Hg3 mi
1:50 am32 °FMostly cloudy.5 mph100%30.33 "Hg3 mi
1:20 am32 °FDrizzle. Low clouds.3 mph100%30.33 "Hg2 mi
12:50 am32 °FLow clouds.5 mph100%30.33 "Hg4 mi
12:20 am32 °FDrizzle. Ice fog.3 mph100%30.33 "Hg3 mi
11:50 pm
Tue, Dec 6
32 °FDrizzle. Low clouds.5 mph100%30.36 "Hg4 mi
11:20 pm32 °FPassing clouds.6 mph93%30.36 "HgN/A
10:50 pm32 °FPassing clouds.8 mph93%30.36 "HgN/A
10:20 pm32 °FPassing clouds.5 mph93%30.36 "HgN/A
9:50 pm32 °FPassing clouds.5 mph93%30.36 "HgN/A
9:20 pm32 °FPassing clouds.5 mph93%30.36 "HgN/A
8:50 pm32 °FPassing clouds.6 mph93%30.39 "HgN/A
8:20 pm32 °FPassing clouds.5 mph93%30.39 "HgN/A
7:50 pm32 °FMostly cloudy.5 mph93%30.39 "HgN/A
6:50 pm30 °FPassing clouds.6 mph93%30.42 "HgN/A
6:20 pm28 °FPassing clouds.5 mph100%30.42 "HgN/A
5:50 pm28 °FPassing clouds.5 mph93%30.42 "HgN/A
5:20 pm28 °FClear.7 mph100%30.42 "Hg10 mi
Weather by CustomWeather, © 2016

See weather overviewHow to use our weather pages